Flag for Canada Weather past 2 weeks in Bathurst, New Brunswick, Canada

Now
41 °F

Mostly cloudy.


Feels Like: 36 °F
Forecast: 22 / 38 °F
Wind: 7 mph from West

Location: Bathurst Airport

Current Time: Mar 27, 2015 at 12:33:42 AM

Latest Report: Mar 26, 2015 at 11:00 PM


Visibility: 15 mi

Pressure: 29.62 "Hg

Humidity: 57%

Dew point: 27 °F

Location of BathurstLocation

Historic Weather in Bathurst — Graph

°F

Bathurst temperature yesterday

Maximum temperature yesterday: 45 °F (at 5:00 PM)
Minimum temperature yesterday: 25 °F (at 12:00 AM)
Average temperature yesterday: 36 °F

Past Weeks' High & Low Weather Summary

 TemperatureHumidityPressure
High45 °F (Mar 26, 5:00 PM)100% (Mar 22, 6:00 AM)30.39 "Hg (Mar 22, 6:00 AM)
Low-6 °F (Mar 14, 5:00 AM)23% (Mar 16, 3:00 PM)29.23 "Hg (Mar 22, 1:00 PM)
Average21 °F57%29.87 "Hg
* Reported Mar 11 11:00 PM — Mar 26 11:00 PM, Bathurst, Weather by CustomWeather, © 2015

Note: Actual official high and low records may vary slightly from our data, if they occured in-between our weather recording intervals... More about our weather records

Advertising

Bathurst weather history for previous 24 hours

 ConditionsComfort  
Time TempWeatherWind HumidityBarometerVisibility
11:00 PM
Thu, Mar 26
41 °FMostly cloudy.7 mph57%29.62 "Hg15 mi
10:00 PM39 °FMostly cloudy.6 mph61%29.61 "Hg15 mi
9:00 PM41 °FOvercast.6 mph57%29.61 "Hg15 mi
8:00 PM41 °FMostly cloudy.7 mph61%29.61 "Hg15 mi
7:00 PM43 °FOvercast.9 mph53%29.61 "Hg15 mi
6:00 PM45 °FMore clouds than sun.14 mph49%29.60 "Hg15 mi
5:00 PM45 °FMostly cloudy.15 mph53%29.62 "Hg15 mi
4:00 PM43 °FMostly cloudy.20 mph66%29.62 "Hg15 mi
3:00 PM43 °FOvercast.16 mph66%29.61 "Hg15 mi
2:00 PM43 °FOvercast.15 mph66%29.62 "Hg15 mi
1:00 PM39 °FLow clouds.7 mph75%29.64 "Hg15 mi
12:00 PM41 °FMostly cloudy.13 mph70%29.66 "Hg15 mi
11:00 AM41 °FMostly cloudy.9 mph70%29.67 "Hg15 mi
10:00 AM36 °FPartly sunny.7 mph81%29.68 "Hg15 mi
9:49 AM34 °FPartly sunny.8 mph87%29.69 "Hg15 mi
9:00 AM32 °FSnow flurries. Mostly cloudy.12 mph87%29.70 "Hg10 mi
8:00 AM30 °FMostly cloudy.7 mph86%29.73 "Hg15 mi
7:00 AM30 °FMostly cloudy.7 mph80%29.76 "Hg15 mi
6:00 AM28 °FOvercast.9 mph74%29.80 "Hg15 mi
5:00 AM28 °FSnow flurries. Overcast.12 mph69%29.82 "Hg10 mi
4:00 AM30 °FChilly.12 mph55%29.87 "Hg15 mi
3:00 AM28 °FOvercast.9 mph55%29.90 "Hg15 mi
2:00 AM27 °FPassing clouds.6 mph54%29.96 "Hg15 mi
1:00 AM27 °FPassing clouds.5 mph54%30.02 "Hg15 mi
12:00 AM25 °FPassing clouds.5 mph59%30.06 "Hg15 mi
Weather by CustomWeather, © 2015

See weather overviewHow to use our weather pages